Location: Home
(42.5358°N, 72.7383°W)
Time: 13:03:01
(UTC-05:00)

Transit 4A - Pass Details

Date: 06 December 2021
Orbit: 863 x 981 km, 66.8° (Epoch: 26 January)

Event Time Altitude Azimuth Distance (km) Brightness Sun altitude
Rises 18:47:20 0° 218° (SW) 3,447 11.5 -26.8°
Reaches altitude 10° 18:49:48 10° 221° (SW) 2,523 10.7 -27.2°
Maximum altitude 18:55:35 66° 303° (WNW) 971 8.0 -28.3°
Enters shadow 18:56:52 52° 358° (N) 1,103 8.2 -28.5°
Drops below altitude 10° 19:01:36 10° 26° (NNE) 2,609 - -29.4°
Sets 19:04:12 0° 29° (NNE) 3,573 - -29.9°
